{"data":{"norad_id":63708,"intl_designator":"2025-087M","name":"STARLINK-33915","alt_names":[],"object_type":"PAYLOAD","status":"ACTIVE","operator":null,"country":"US","launch_date":"2025-04-28","launch_site_code":"AFWTR","launch_vehicle":null,"mission":null,"orbit_class":"UNKNOWN","rcs_meters":null,"size_class":null,"mass_kg":null,"dimensions":null,"purposes":["comms"],"wikipedia_slug":null,"has_3d_model":false,"image_url":null,"decayed_at":null,"tle_current":{"epoch":"2026-05-25T04:52:39.967968Z","epoch_age_seconds":56932,"freshness":"FRESH","line1":"1 63708U 25087M   26145.20324037  .00016083  00000+0  55367-3 0  9991","line2":"2 63708  53.1570 224.1954 0002033  89.8263 270.2970 15.30216543 60911","mean_motion":15.30216543,"eccentricity":0.0002033,"inclination_deg":53.157,"raan_deg":224.1954,"arg_perigee_deg":89.8263,"mean_anomaly_deg":270.297,"bstar":0.00055367,"rev_number":6091,"period_min":94.10432834407,"perigee_km":473.7723990143,"apogee_km":476.55895188214,"semimajor_km":6853.3026754482,"source":"CELESTRAK","updated_at":"2026-05-25T13:38:20.098338Z"}}}